TimeCDT,TemperatureF,Dew PointF,Humidity,Sea Level PressureIn,VisibilityMPH,Wind Direction,Wind SpeedMPH,Gust SpeedMPH,PrecipitationIn,Events,Conditions,WindDirDegrees,DateUTC
12:56 AM,61.0,54.0,78,29.65,10.0,ENE,4.6,-,N/A,,Mostly Cloudy,60,2013-09-28 05:56:00
1:51 AM,55.4,53.6,94,29.71,10.0,WNW,18.4,29.9,N/A,,Mostly Cloudy,300,2013-09-28 06:51:00
1:56 AM,55.0,52.0,89,29.69,10.0,NW,17.3,29.9,N/A,,Mostly Cloudy,310,2013-09-28 06:56:00
2:56 AM,53.1,52.0,96,29.69,7.0,North,3.5,-,0.16,Rain,Rain,350,2013-09-28 07:56:00
3:07 AM,53.6,51.8,94,29.70,5.0,WNW,6.9,-,0.03,Rain,Rain,290,2013-09-28 08:07:00
3:16 AM,53.6,51.8,94,29.71,3.0,NNW,8.1,-,0.07,Rain,Heavy Rain,340,2013-09-28 08:16:00
3:39 AM,53.6,51.8,94,29.70,9.0,NW,4.6,-,0.10,Rain,Light Rain,310,2013-09-28 08:39:00
3:56 AM,53.1,52.0,96,29.68,7.0,WNW,6.9,-,0.12,Rain,Rain,300,2013-09-28 08:56:00
4:31 AM,53.6,51.8,94,29.69,10.0,WNW,4.6,-,0.02,,Overcast,290,2013-09-28 09:31:00
4:56 AM,53.1,52.0,96,29.69,10.0,West,8.1,-,0.02,Rain,Light Rain,280,2013-09-28 09:56:00
5:56 AM,52.0,50.0,93,29.71,10.0,WNW,10.4,18.4,0.03,Rain,Light Rain,290,2013-09-28 10:56:00
6:34 AM,51.8,50.0,94,29.74,6.0,WNW,10.4,18.4,0.04,Rain,Rain,290,2013-09-28 11:34:00
6:56 AM,52.0,50.0,93,29.74,10.0,WNW,12.7,-,0.06,Rain,Light Rain,290,2013-09-28 11:56:00
7:05 AM,51.8,50.0,94,29.73,10.0,WNW,10.4,18.4,0.00,Rain,Light Rain,300,2013-09-28 12:05:00
7:08 AM,51.8,50.0,94,29.73,10.0,WNW,11.5,18.4,0.00,Rain,Light Rain,300,2013-09-28 12:08:00
7:56 AM,51.1,48.9,92,29.79,10.0,WNW,12.7,26.5,0.00,,Overcast,290,2013-09-28 12:56:00
8:56 AM,50.0,48.0,93,29.82,5.0,WNW,12.7,-,0.00,Rain,Light Rain,290,2013-09-28 13:56:00
9:30 AM,50.0,46.4,87,29.84,10.0,WNW,18.4,31.1,0.00,,Overcast,290,2013-09-28 14:30:00
9:56 AM,52.0,48.0,86,29.84,10.0,WNW,12.7,20.7,0.00,,Overcast,300,2013-09-28 14:56:00
10:56 AM,52.0,46.0,80,29.87,10.0,WNW,15.0,23.0,N/A,,Overcast,290,2013-09-28 15:56:00
11:56 AM,55.0,45.0,69,29.89,10.0,WNW,15.0,24.2,N/A,,Mostly Cloudy,300,2013-09-28 16:56:00
12:34 PM,57.2,42.8,59,29.89,10.0,WNW,16.1,23.0,N/A,,Scattered Clouds,290,2013-09-28 17:34:00
12:56 PM,59.0,43.0,55,29.89,10.0,WNW,15.0,24.2,N/A,,Scattered Clouds,300,2013-09-28 17:56:00
1:56 PM,59.0,39.9,49,29.91,10.0,WNW,18.4,28.8,N/A,,Scattered Clouds,300,2013-09-28 18:56:00
2:56 PM,62.1,41.0,46,29.91,10.0,WNW,15.0,24.2,N/A,,Scattered Clouds,290,2013-09-28 19:56:00
3:56 PM,63.0,41.0,45,29.91,10.0,WNW,13.8,20.7,N/A,,Partly Cloudy,300,2013-09-28 20:56:00
4:56 PM,63.0,39.0,41,29.92,10.0,WNW,11.5,21.9,N/A,,Partly Cloudy,300,2013-09-28 21:56:00
5:56 PM,63.0,37.9,40,29.94,10.0,West,9.2,17.3,N/A,,Partly Cloudy,270,2013-09-28 22:56:00
6:56 PM,60.1,37.9,44,29.96,10.0,WSW,3.5,-,N/A,,Partly Cloudy,240,2013-09-28 23:56:00
7:56 PM,57.0,39.9,53,29.96,10.0,SSW,4.6,-,N/A,,Partly Cloudy,200,2013-09-29 00:56:00
8:56 PM,53.1,41.0,64,29.97,10.0,SSW,4.6,-,N/A,,Clear,200,2013-09-29 01:56:00
9:56 PM,53.1,41.0,64,29.98,10.0,SSW,6.9,-,N/A,,Clear,200,2013-09-29 02:56:00
10:56 PM,54.0,39.9,59,29.98,10.0,SSW,9.2,-,N/A,,Clear,200,2013-09-29 03:56:00
11:56 PM,52.0,39.9,63,29.98,10.0,SSW,5.8,-,N/A,,Clear,210,2013-09-29 04:56:00